Time,TemperatureF,DewpointF,PressureIn,WindDirection,WindDirectionDegrees,WindSpeedMPH,WindSpeedGustMPH,Humidity,HourlyPrecipIn,Conditions,Clouds,dailyrainin,SoftwareType,DateUTC
2013-07-01 00:02:00,73.4,71.7,29.90,North,0,0.0,0.0,93,-99.99,,,-99.99,PWS SA v1.10,2013-07-01 04:02:00,
2013-07-01 00:04:00,73.4,71.7,29.90,North,0,0.0,0.0,93,-99.99,,,-99.99,PWS SA v1.10,2013-07-01 04:04:00,
2013-07-01 00:06:00,73.2,71.7,29.89,SSE,154,1.7,1.7,94,-99.99,,,-99.99,PWS SA v1.10,2013-07-01 04:06:00,
2013-07-01 00:12:00,73.1,72.1,29.90,North,0,0.0,1.0,96,-99.99,,,-99.99,PWS SA v1.10,2013-07-01 04:12:00,
2013-07-01 00:14:00,73.0,72.0,29.90,North,0,0.0,1.0,96,-99.99,,,-99.99,PWS SA v1.10,2013-07-01 04:14:00,
2013-07-01 00:20:00,72.9,72.1,29.90,North,0,0.0,3.0,96,-99.99,,,-99.99,PWS SA v1.10,2013-07-01 04:20:00,
2013-07-01 00:24:00,72.8,72.1,29.90,North,0,0.0,3.0,96,-99.99,,,-99.99,PWS SA v1.10,2013-07-01 04:24:00,
2013-07-01 00:30:00,72.8,71.8,29.90,North,0,0.0,3.0,96,-99.99,,,-99.99,PWS SA v1.10,2013-07-01 04:30:00,
2013-07-01 00:36:00,72.8,71.8,29.90,North,0,0.0,0.0,96,-99.99,,,-99.99,PWS SA v1.10,2013-07-01 04:36:00,
2013-07-01 00:42:00,72.8,71.8,29.90,North,0,0.0,0.0,96,-99.99,,,-99.99,PWS SA v1.10,2013-07-01 04:42:00,
2013-07-01 00:48:00,72.6,71.4,29.91,North,0,0.0,0.0,96,-99.99,,,-99.99,PWS SA v1.10,2013-07-01 04:48:00,
2013-07-01 00:54:00,72.6,71.4,29.91,North,0,0.0,0.0,96,-99.99,,,-99.99,PWS SA v1.10,2013-07-01 04:54:00,
2013-07-01 01:00:00,72.6,71.8,29.91,North,0,0.0,1.0,96,-99.99,,,-99.99,PWS SA v1.10,2013-07-01 05:00:00,
2013-07-01 01:06:00,72.5,71.5,29.91,North,0,0.0,1.0,96,-99.99,,,-99.99,PWS SA v1.10,2013-07-01 05:06:00,
2013-07-01 01:12:00,72.3,71.4,29.90,North,0,0.0,1.0,96,-99.99,,,-99.99,PWS SA v1.10,2013-07-01 05:12:00,
2013-07-01 01:18:00,72.4,71.7,29.91,North,0,0.0,1.0,97,-99.99,,,-99.99,PWS SA v1.10,2013-07-01 05:18:00,
2013-07-01 01:24:00,72.5,71.7,29.91,North,0,0.0,1.0,97,-99.99,,,-99.99,PWS SA v1.10,2013-07-01 05:24:00,
2013-07-01 01:30:00,72.3,71.6,29.90,North,0,0.0,3.0,97,-99.99,,,-99.99,PWS SA v1.10,2013-07-01 05:30:00,
2013-07-01 01:36:00,72.3,71.5,29.90,North,0,0.0,3.0,97,-99.99,,,-99.99,PWS SA v1.10,2013-07-01 05:36:00,
2013-07-01 01:42:00,72.3,71.7,29.90,North,0,0.0,0.0,97,-99.99,,,-99.99,PWS SA v1.10,2013-07-01 05:42:00,
2013-07-01 01:48:00,72.2,71.6,29.91,North,0,0.0,0.0,97,-99.99,,,-99.99,PWS SA v1.10,2013-07-01 05:48:00,
2013-07-01 01:54:00,72.2,71.8,29.90,North,0,0.0,1.0,98,-99.99,,,-99.99,PWS SA v1.10,2013-07-01 05:54:00,
2013-07-01 02:00:00,72.1,71.7,29.90,North,0,0.0,1.0,98,-99.99,,,-99.99,PWS SA v1.10,2013-07-01 06:00:00,
2013-07-01 02:06:00,72.1,71.4,29.90,North,0,0.0,1.0,97,-99.99,,,-99.99,PWS SA v1.10,2013-07-01 06:06:00,
2013-07-01 02:12:00,72.1,71.6,29.90,North,0,0.0,0.0,97,-99.99,,,-99.99,PWS SA v1.10,2013-07-01 06:12:00,
2013-07-01 02:18:00,72.1,71.4,29.91,North,0,0.0,0.0,97,-99.99,,,-99.99,PWS SA v1.10,2013-07-01 06:18:00,
2013-07-01 02:24:00,72.2,71.6,29.92,North,0,0.0,0.0,97,-99.99,,,-99.99,PWS SA v1.10,2013-07-01 06:24:00,
2013-07-01 02:30:00,72.2,71.5,29.92,North,0,0.0,0.0,97,-99.99,,,-99.99,PWS SA v1.10,2013-07-01 06:30:00,
2013-07-01 02:36:00,72.2,71.7,29.91,North,0,0.0,0.0,97,-99.99,,,-99.99,PWS SA v1.10,2013-07-01 06:36:00,
2013-07-01 02:42:00,72.2,71.7,29.91,North,0,0.0,0.0,97,-99.99,,,-99.99,PWS SA v1.10,2013-07-01 06:42:00,
2013-07-01 02:48:00,72.2,71.7,29.91,North,0,0.0,0.0,97,-99.99,,,-99.99,PWS SA v1.10,2013-07-01 06:48:00,
2013-07-01 02:54:00,72.2,71.7,29.91,North,0,0.0,0.0,97,-99.99,,,-99.99,PWS SA v1.10,2013-07-01 06:54:00,
2013-07-01 03:00:00,72.2,71.7,29.91,North,0,0.0,0.0,97,-99.99,,,-99.99,PWS SA v1.10,2013-07-01 07:00:00,
2013-07-01 03:06:00,72.2,71.7,29.91,North,0,0.0,0.0,97,-99.99,,,-99.99,PWS SA v1.10,2013-07-01 07:06:00,
2013-07-01 03:12:00,72.2,71.7,29.91,North,0,0.0,0.0,97,-99.99,,,-99.99,PWS SA v1.10,2013-07-01 07:12:00,
2013-07-01 03:18:00,72.2,71.7,29.91,North,0,0.0,0.0,97,-99.99,,,-99.99,PWS SA v1.10,2013-07-01 07:18:00,
2013-07-01 03:24:00,72.2,71.8,29.91,North,0,0.0,0.0,98,-99.99,,,-99.99,PWS SA v1.10,2013-07-01 07:24:00,
2013-07-01 03:30:00,72.2,71.8,29.92,North,0,0.0,0.0,98,-99.99,,,-99.99,PWS SA v1.10,2013-07-01 07:30:00,
2013-07-01 03:36:00,72.2,71.8,29.92,North,0,0.0,0.0,98,-99.99,,,-99.99,PWS SA v1.10,2013-07-01 07:36:00,
2013-07-01 03:42:00,72.2,71.8,29.91,North,0,0.0,0.0,98,-99.99,,,-99.99,PWS SA v1.10,2013-07-01 07:42:00,
2013-07-01 03:48:00,72.2,71.8,29.91,North,0,0.0,0.0,98,-99.99,,,-99.99,PWS SA v1.10,2013-07-01 07:48:00,
2013-07-01 03:54:00,72.2,71.8,29.91,North,0,0.0,0.0,98,-99.99,,,-99.99,PWS SA v1.10,2013-07-01 07:54:00,
2013-07-01 04:00:00,72.2,71.8,29.91,North,0,0.0,0.0,98,-99.99,,,-99.99,PWS SA v1.10,2013-07-01 08:00:00,
2013-07-01 04:06:00,72.1,71.8,29.92,North,0,0.0,0.0,98,-99.99,,,-99.99,PWS SA v1.10,2013-07-01 08:06:00,
2013-07-01 04:12:00,72.1,71.8,29.92,North,0,0.0,0.0,98,-99.99,,,-99.99,PWS SA v1.10,2013-07-01 08:12:00,
2013-07-01 04:18:00,72.1,71.8,29.92,North,0,0.0,0.0,98,-99.99,,,-99.99,PWS SA v1.10,2013-07-01 08:18:00,
2013-07-01 04:24:00,72.1,71.8,29.92,North,0,0.0,0.0,98,-99.99,,,-99.99,PWS SA v1.10,2013-07-01 08:24:00,
2013-07-01 04:30:00,72.1,71.8,29.92,North,0,0.0,0.0,98,-99.99,,,-99.99,PWS SA v1.10,2013-07-01 08:30:00,
2013-07-01 04:36:00,72.1,71.8,29.92,North,0,0.0,0.0,98,-99.99,,,-99.99,PWS SA v1.10,2013-07-01 08:36:00,
2013-07-01 04:42:00,72.1,71.8,29.92,North,0,0.0,0.0,98,-99.99,,,-99.99,PWS SA v1.10,2013-07-01 08:42:00,
2013-07-01 04:48:00,72.1,71.8,29.92,North,0,0.0,0.0,98,-99.99,,,-99.99,PWS SA v1.10,2013-07-01 08:48:00,
2013-07-01 04:54:00,72.1,71.7,29.93,North,0,0.0,0.0,99,-99.99,,,-99.99,PWS SA v1.10,2013-07-01 08:54:00,
2013-07-01 05:00:00,72.2,72.0,29.93,North,0,0.0,0.0,99,-99.99,,,-99.99,PWS SA v1.10,2013-07-01 09:00:00,
2013-07-01 05:06:00,72.2,72.1,29.92,North,0,0.0,0.0,99,-99.99,,,-99.99,PWS SA v1.10,2013-07-01 09:06:00,
2013-07-01 05:12:00,72.3,72.0,29.93,North,0,0.0,0.0,99,-99.99,,,-99.99,PWS SA v1.10,2013-07-01 09:12:00,
2013-07-01 05:18:00,72.3,72.1,29.93,North,0,0.0,0.0,99,-99.99,,,-99.99,PWS SA v1.10,2013-07-01 09:18:00,
2013-07-01 05:24:00,72.3,72.1,29.93,North,0,0.0,0.0,99,-99.99,,,-99.99,PWS SA v1.10,2013-07-01 09:24:00,
2013-07-01 05:30:00,72.3,72.1,29.93,North,0,0.0,0.0,99,-99.99,,,-99.99,PWS SA v1.10,2013-07-01 09:30:00,
2013-07-01 05:36:00,72.3,72.1,29.93,North,0,0.0,0.0,99,-99.99,,,-99.99,PWS SA v1.10,2013-07-01 09:36:00,
2013-07-01 05:42:00,72.3,72.0,29.93,North,0,0.0,0.0,99,-99.99,,,-99.99,PWS SA v1.10,2013-07-01 09:42:00,
2013-07-01 05:48:00,72.3,72.5,29.93,North,0,0.0,0.0,100,-99.99,,,-99.99,PWS SA v1.10,2013-07-01 09:48:00,
2013-07-01 05:54:00,72.4,72.4,29.94,North,0,0.0,0.0,100,-99.99,,,-99.99,PWS SA v1.10,2013-07-01 09:54:00,
2013-07-01 06:00:00,72.5,72.5,29.94,North,0,0.0,0.0,99,-99.99,,,-99.99,PWS SA v1.10,2013-07-01 10:00:00,
2013-07-01 06:06:00,72.5,72.3,29.94,North,0,0.0,0.0,99,-99.99,,,-99.99,PWS SA v1.10,2013-07-01 10:06:00,
2013-07-01 06:12:00,72.6,72.5,29.95,North,0,0.0,0.0,99,-99.99,,,-99.99,PWS SA v1.10,2013-07-01 10:12:00,
2013-07-01 06:18:00,72.7,72.3,29.94,North,0,0.0,0.0,99,-99.99,,,-99.99,PWS SA v1.10,2013-07-01 10:18:00,
2013-07-01 06:24:00,72.7,72.7,29.93,North,0,0.0,0.0,99,-99.99,,,-99.99,PWS SA v1.10,2013-07-01 10:24:00,
2013-07-01 06:30:00,72.9,72.6,29.93,North,0,0.0,0.0,99,-99.99,,,-99.99,PWS SA v1.10,2013-07-01 10:30:00,
2013-07-01 06:36:00,73.0,72.9,29.93,North,0,0.0,0.0,99,-99.99,,,-99.99,PWS SA v1.10,2013-07-01 10:36:00,
2013-07-01 06:42:00,73.1,72.9,29.93,North,0,0.0,0.0,99,-99.99,,,-99.99,PWS SA v1.10,2013-07-01 10:42:00,
2013-07-01 06:48:00,73.2,72.8,29.93,North,0,0.0,3.0,99,-99.99,,,-99.99,PWS SA v1.10,2013-07-01 10:48:00,
2013-07-01 06:54:00,73.4,72.9,29.93,North,0,0.0,3.0,99,-99.99,,,-99.99,PWS SA v1.10,2013-07-01 10:54:00,
2013-07-01 07:00:00,73.6,73.1,29.94,North,0,0.0,3.0,99,-99.99,,,-99.99,PWS SA v1.10,2013-07-01 11:00:00,
2013-07-01 07:06:00,73.7,73.1,29.94,North,0,0.0,0.0,98,-99.99,,,-99.99,PWS SA v1.10,2013-07-01 11:06:00,
2013-07-01 07:12:00,73.9,73.3,29.94,North,0,0.0,1.0,98,-99.99,,,-99.99,PWS SA v1.10,2013-07-01 11:12:00,
2013-07-01 07:18:00,73.8,73.0,29.95,SE,142,1.7,3.0,97,-99.99,,,-99.99,PWS SA v1.10,2013-07-01 11:18:00,
2013-07-01 07:24:00,74.0,73.2,29.94,North,0,0.0,3.0,97,-99.99,,,-99.99,PWS SA v1.10,2013-07-01 11:24:00,
2013-07-01 07:30:00,74.1,73.3,29.94,North,0,0.0,3.0,96,-99.99,,,-99.99,PWS SA v1.10,2013-07-01 11:30:00,
2013-07-01 07:36:00,74.4,73.6,29.94,North,0,0.0,0.0,97,-99.99,,,-99.99,PWS SA v1.10,2013-07-01 11:36:00,
2013-07-01 07:42:00,74.5,73.3,29.94,North,0,0.0,0.0,96,-99.99,,,-99.99,PWS SA v1.10,2013-07-01 11:42:00,
2013-07-01 07:48:00,74.4,73.2,29.94,North,0,0.0,1.0,96,-99.99,,,-99.99,PWS SA v1.10,2013-07-01 11:48:00,
2013-07-01 07:54:00,74.5,73.1,29.93,North,0,0.0,1.0,95,-99.99,,,-99.99,PWS SA v1.10,2013-07-01 11:54:00,
2013-07-01 08:00:00,74.8,73.6,29.94,ESE,123,3.4,3.4,96,-99.99,,,-99.99,PWS SA v1.10,2013-07-01 12:00:00,
2013-07-01 08:06:00,74.6,73.4,29.95,North,0,0.0,3.0,96,-99.99,,,-99.99,PWS SA v1.10,2013-07-01 12:06:00,
2013-07-01 08:12:00,74.7,73.3,29.94,North,0,0.0,3.0,95,-99.99,,,-99.99,PWS SA v1.10,2013-07-01 12:12:00,
2013-07-01 08:18:00,74.8,73.2,29.94,North,0,0.0,3.0,95,-99.99,,,-99.99,PWS SA v1.10,2013-07-01 12:18:00,
2013-07-01 08:24:00,74.9,73.3,29.94,North,0,0.0,3.0,95,-99.99,,,-99.99,PWS SA v1.10,2013-07-01 12:24:00,
2013-07-01 08:30:00,74.9,73.3,29.95,North,0,0.0,3.0,94,-99.99,,,-99.99,PWS SA v1.10,2013-07-01 12:30:00,
2013-07-01 08:36:00,74.9,73.5,29.95,North,0,0.0,3.0,94,-99.99,,,-99.99,PWS SA v1.10,2013-07-01 12:36:00,
2013-07-01 08:42:00,74.7,73.0,29.95,North,0,0.0,5.0,94,-99.99,,,-99.99,PWS SA v1.10,2013-07-01 12:42:00,
2013-07-01 08:48:00,74.7,72.8,29.96,North,0,0.0,5.0,93,-99.99,,,-99.99,PWS SA v1.10,2013-07-01 12:48:00,
2013-07-01 08:54:00,74.4,72.7,29.95,North,0,0.0,5.0,94,-99.99,,,-99.99,PWS SA v1.10,2013-07-01 12:54:00,
2013-07-01 09:00:00,74.5,72.8,29.95,North,0,0.0,1.0,94,-99.99,,,-99.99,PWS SA v1.10,2013-07-01 13:00:00,
2013-07-01 09:06:00,74.7,73.1,29.96,North,0,0.0,1.0,94,-99.99,,,-99.99,PWS SA v1.10,2013-07-01 13:06:00,
2013-07-01 09:12:00,74.7,73.1,29.95,North,0,0.0,0.0,94,-99.99,,,-99.99,PWS SA v1.10,2013-07-01 13:12:00,
2013-07-01 09:18:00,74.9,73.3,29.94,North,0,0.0,0.0,94,-99.99,,,-99.99,PWS SA v1.10,2013-07-01 13:18:00,
2013-07-01 09:24:00,75.2,73.0,29.95,North,0,0.0,1.0,93,-99.99,,,-99.99,PWS SA v1.10,2013-07-01 13:24:00,
2013-07-01 09:30:00,75.3,73.1,29.96,North,0,0.0,1.0,92,-99.99,,,-99.99,PWS SA v1.10,2013-07-01 13:30:00,
2013-07-01 09:36:00,75.5,73.5,29.96,North,0,0.0,1.0,93,-99.99,,,-99.99,PWS SA v1.10,2013-07-01 13:36:00,
2013-07-01 09:42:00,75.3,73.0,29.96,SSE,157,5.1,5.1,92,-99.99,,,-99.99,PWS SA v1.10,2013-07-01 13:42:00,
2013-07-01 09:48:00,75.5,73.2,29.96,North,0,0.0,5.0,92,-99.99,,,-99.99,PWS SA v1.10,2013-07-01 13:48:00,
2013-07-01 09:54:00,75.7,73.4,29.96,North,0,0.0,5.0,93,-99.99,,,-99.99,PWS SA v1.10,2013-07-01 13:54:00,
2013-07-01 10:00:00,75.8,73.3,29.96,North,0,0.0,3.0,92,-99.99,,,-99.99,PWS SA v1.10,2013-07-01 14:00:00,
2013-07-01 10:06:00,75.9,73.5,29.96,North,0,0.0,3.0,91,-99.99,,,-99.99,PWS SA v1.10,2013-07-01 14:06:00,
2013-07-01 10:12:00,75.8,73.5,29.96,North,0,0.0,1.0,92,-99.99,,,-99.99,PWS SA v1.10,2013-07-01 14:12:00,
2013-07-01 10:18:00,75.7,73.5,29.97,North,0,0.0,3.0,92,-99.99,,,-99.99,PWS SA v1.10,2013-07-01 14:18:00,
2013-07-01 10:24:00,75.8,73.3,29.96,North,0,0.0,3.0,91,-99.99,,,-99.99,PWS SA v1.10,2013-07-01 14:24:00,
2013-07-01 10:30:00,75.8,73.5,29.96,North,0,0.0,3.0,92,-99.99,,,-99.99,PWS SA v1.10,2013-07-01 14:30:00,
2013-07-01 10:36:00,76.0,73.9,29.96,North,0,0.0,0.0,93,-99.99,,,-99.99,PWS SA v1.10,2013-07-01 14:36:00,
2013-07-01 10:42:00,76.7,74.4,29.96,North,0,0.0,3.0,92,-99.99,,,-99.99,PWS SA v1.10,2013-07-01 14:42:00,
2013-07-01 10:48:00,77.0,73.7,29.96,WNW,300,1.7,5.0,90,-99.99,,,-99.99,PWS SA v1.10,2013-07-01 14:48:00,
2013-07-01 10:54:00,77.4,74.2,29.96,North,0,0.0,5.0,90,-99.99,,,-99.99,PWS SA v1.10,2013-07-01 14:54:00,
2013-07-01 11:00:00,77.6,74.1,29.96,North,0,0.0,1.0,89,-99.99,,,-99.99,PWS SA v1.10,2013-07-01 15:00:00,
2013-07-01 11:06:00,78.2,74.7,29.96,North,0,0.0,1.0,89,-99.99,,,-99.99,PWS SA v1.10,2013-07-01 15:06:00,
2013-07-01 11:12:00,78.8,74.9,29.96,North,0,0.0,1.0,88,-99.99,,,-99.99,PWS SA v1.10,2013-07-01 15:12:00,
2013-07-01 11:18:00,79.7,75.0,29.96,North,0,0.0,0.0,86,-99.99,,,-99.99,PWS SA v1.10,2013-07-01 15:18:00,
2013-07-01 11:24:00,79.5,74.7,29.96,SSE,150,1.7,1.7,85,-99.99,,,-99.99,PWS SA v1.10,2013-07-01 15:24:00,
2013-07-01 11:30:00,79.2,74.6,29.97,North,0,0.0,3.0,85,-99.99,,,-99.99,PWS SA v1.10,2013-07-01 15:30:00,
2013-07-01 11:36:00,78.7,74.0,29.96,North,0,0.0,3.0,84,-99.99,,,-99.99,PWS SA v1.10,2013-07-01 15:36:00,
2013-07-01 11:42:00,78.4,74.3,29.96,South,181,1.7,3.0,86,-99.99,,,-99.99,PWS SA v1.10,2013-07-01 15:42:00,
2013-07-01 11:48:00,78.1,74.1,29.97,North,0,0.0,1.0,87,-99.99,,,-99.99,PWS SA v1.10,2013-07-01 15:48:00,
2013-07-01 11:54:00,78.4,74.7,29.96,North,0,0.0,1.0,88,-99.99,,,-99.99,PWS SA v1.10,2013-07-01 15:54:00,
2013-07-01 12:00:00,78.5,74.7,29.96,SSW,196,5.1,5.1,87,-99.99,,,-99.99,PWS SA v1.10,2013-07-01 16:00:00,
2013-07-01 12:06:00,79.2,75.1,29.97,North,0,0.0,5.0,87,-99.99,,,-99.99,PWS SA v1.10,2013-07-01 16:06:00,
2013-07-01 12:12:00,79.6,74.8,29.96,SE,129,1.7,5.0,85,-99.99,,,-99.99,PWS SA v1.10,2013-07-01 16:12:00,
2013-07-01 12:18:00,79.2,74.7,29.96,SSE,155,1.7,3.0,85,-99.99,,,-99.99,PWS SA v1.10,2013-07-01 16:18:00,
2013-07-01 12:24:00,79.1,74.6,29.97,North,0,0.0,6.0,86,-99.99,,,-99.99,PWS SA v1.10,2013-07-01 16:24:00,
2013-07-01 12:30:00,79.4,75.0,29.96,North,0,0.0,6.0,86,-99.99,,,-99.99,PWS SA v1.10,2013-07-01 16:30:00,
2013-07-01 12:36:00,79.8,74.8,29.96,North,0,0.0,6.0,84,-99.99,,,-99.99,PWS SA v1.10,2013-07-01 16:36:00,
2013-07-01 12:42:00,81.1,75.5,29.95,North,0,0.0,3.0,84,-99.99,,,-99.99,PWS SA v1.10,2013-07-01 16:42:00,
2013-07-01 12:48:00,82.1,75.5,29.95,NNW,337,3.4,3.4,81,-99.99,,,-99.99,PWS SA v1.10,2013-07-01 16:48:00,
2013-07-01 12:54:00,82.6,74.8,29.95,North,0,0.0,5.0,77,-99.99,,,-99.99,PWS SA v1.10,2013-07-01 16:54:00,
2013-07-01 13:00:00,83.6,76.3,29.95,SSW,206,3.4,5.0,79,-99.99,,,-99.99,PWS SA v1.10,2013-07-01 17:00:00,
2013-07-01 13:06:00,82.2,75.1,29.95,WSW,246,1.7,3.0,77,-99.99,,,-99.99,PWS SA v1.10,2013-07-01 17:06:00,
2013-07-01 13:12:00,81.2,74.9,29.95,SE,127,1.7,3.0,80,-99.99,,,-99.99,PWS SA v1.10,2013-07-01 17:12:00,
2013-07-01 13:18:00,81.6,76.6,29.95,North,0,0.0,1.0,84,-99.99,,,-99.99,PWS SA v1.10,2013-07-01 17:18:00,
2013-07-01 13:24:00,80.9,75.0,29.95,North,0,0.0,1.0,81,-99.99,,,-99.99,PWS SA v1.10,2013-07-01 17:24:00,
2013-07-01 13:30:00,80.7,76.4,29.94,North,0,0.0,1.0,86,-99.99,,,-99.99,PWS SA v1.10,2013-07-01 17:30:00,
2013-07-01 13:36:00,80.2,77.5,29.95,North,0,0.0,0.0,91,-99.99,,,-99.99,PWS SA v1.10,2013-07-01 17:36:00,
2013-07-01 13:42:00,80.5,77.3,29.94,SW,230,3.4,3.4,90,-99.99,,,-99.99,PWS SA v1.10,2013-07-01 17:42:00,
2013-07-01 13:48:00,80.3,77.0,29.95,North,0,0.0,3.0,89,-99.99,,,-99.99,PWS SA v1.10,2013-07-01 17:48:00,
2013-07-01 13:54:00,80.2,76.3,29.94,North,0,0.0,3.0,87,-99.99,,,-99.99,PWS SA v1.10,2013-07-01 17:54:00,
2013-07-01 14:00:00,80.3,76.7,29.94,North,0,0.0,3.0,88,-99.99,,,-99.99,PWS SA v1.10,2013-07-01 18:00:00,
2013-07-01 14:06:00,81.3,77.6,29.94,North,0,0.0,3.0,88,-99.99,,,-99.99,PWS SA v1.10,2013-07-01 18:06:00,
2013-07-01 14:12:00,81.3,75.6,29.94,North,0,0.0,5.0,83,-99.99,,,-99.99,PWS SA v1.10,2013-07-01 18:12:00,
2013-07-01 14:18:00,82.0,76.7,29.94,North,0,0.0,5.0,84,-99.99,,,-99.99,PWS SA v1.10,2013-07-01 18:18:00,
2013-07-01 14:24:00,81.7,75.3,29.94,SW,234,1.7,6.0,81,-99.99,,,-99.99,PWS SA v1.10,2013-07-01 18:24:00,
2013-07-01 14:30:00,82.2,76.1,29.94,WSW,248,1.7,6.0,81,-99.99,,,-99.99,PWS SA v1.10,2013-07-01 18:30:00,
2013-07-01 14:36:00,82.1,74.7,29.94,NW,311,5.1,6.0,78,-99.99,,,-99.99,PWS SA v1.10,2013-07-01 18:36:00,
2013-07-01 14:42:00,82.9,76.0,29.94,North,0,0.0,5.0,80,-99.99,,,-99.99,PWS SA v1.10,2013-07-01 18:42:00,
2013-07-01 14:48:00,82.7,74.7,29.94,ESE,104,1.7,5.0,76,-99.99,,,-99.99,PWS SA v1.10,2013-07-01 18:48:00,
2013-07-01 14:54:00,82.1,74.1,29.94,South,177,1.7,3.0,76,-99.99,,,-99.99,PWS SA v1.10,2013-07-01 18:54:00,
2013-07-01 15:00:00,82.3,75.2,29.95,North,0,0.0,3.0,79,-99.99,,,-99.99,PWS SA v1.10,2013-07-01 19:00:00,
2013-07-01 15:06:00,82.3,75.2,29.95,North,0,0.0,3.0,79,-99.99,,,-99.99,PWS SA v1.10,2013-07-01 19:06:00,
2013-07-01 15:12:00,83.3,76.1,29.94,NNW,344,1.7,3.0,79,-99.99,,,-99.99,PWS SA v1.10,2013-07-01 19:12:00,
2013-07-01 15:18:00,82.5,75.5,29.94,North,0,0.0,3.0,79,-99.99,,,-99.99,PWS SA v1.10,2013-07-01 19:18:00,
2013-07-01 15:24:00,82.0,75.7,29.94,North,0,0.0,3.0,81,-99.99,,,-99.99,PWS SA v1.10,2013-07-01 19:24:00,
2013-07-01 15:30:00,81.6,75.9,29.94,West,261,3.4,3.4,83,-99.99,,,-99.99,PWS SA v1.10,2013-07-01 19:30:00,
2013-07-01 15:36:00,81.3,75.7,29.94,SE,132,6.8,6.8,83,-99.99,,,-99.99,PWS SA v1.10,2013-07-01 19:36:00,
2013-07-01 15:42:00,80.9,74.5,29.94,North,0,0.0,6.0,80,-99.99,,,-99.99,PWS SA v1.10,2013-07-01 19:42:00,
2013-07-01 15:48:00,80.5,74.2,29.94,North,0,0.0,6.0,81,-99.99,,,-99.99,PWS SA v1.10,2013-07-01 19:48:00,
2013-07-01 15:54:00,80.6,74.2,29.95,North,0,0.0,5.0,81,-99.99,,,-99.99,PWS SA v1.10,2013-07-01 19:54:00,
2013-07-01 16:00:00,81.8,74.9,29.94,WSW,256,3.4,6.0,80,-99.99,,,-99.99,PWS SA v1.10,2013-07-01 20:00:00,
2013-07-01 16:06:00,82.5,75.3,29.94,NW,324,1.7,6.0,79,-99.99,,,-99.99,PWS SA v1.10,2013-07-01 20:06:00,
2013-07-01 16:12:00,82.1,74.3,29.94,ENE,74,5.1,5.1,77,-99.99,,,-99.99,PWS SA v1.10,2013-07-01 20:12:00,
2013-07-01 16:14:00,81.8,73.9,29.94,NNW,329,5.1,5.1,77,-99.99,,,-99.99,PWS SA v1.10,2013-07-01 20:14:00,
2013-07-01 16:20:00,81.4,74.1,29.95,North,0,0.0,5.0,78,-99.99,,,-99.99,PWS SA v1.10,2013-07-01 20:20:00,
2013-07-01 16:26:00,81.6,74.4,29.96,West,279,1.7,5.0,78,-99.99,,,-99.99,PWS SA v1.10,2013-07-01 20:26:00,
2013-07-01 16:32:00,81.8,74.7,29.96,ESE,108,3.4,3.4,79,-99.99,,,-99.99,PWS SA v1.10,2013-07-01 20:32:00,
2013-07-01 16:38:00,82.0,74.7,29.95,North,0,0.0,3.0,78,-99.99,,,-99.99,PWS SA v1.10,2013-07-01 20:38:00,
2013-07-01 16:44:00,81.8,73.3,29.95,North,0,0.0,10.0,76,-99.99,,,-99.99,PWS SA v1.10,2013-07-01 20:44:00,
2013-07-01 16:50:00,81.6,74.2,29.95,North,0,0.0,10.0,78,-99.99,,,-99.99,PWS SA v1.10,2013-07-01 20:50:00,
2013-07-01 16:56:00,81.2,74.0,29.96,North,0,0.0,6.0,79,-99.99,,,-99.99,PWS SA v1.10,2013-07-01 20:56:00,
2013-07-01 17:02:00,80.9,74.2,29.96,North,0,0.0,6.0,80,-99.99,,,-99.99,PWS SA v1.10,2013-07-01 21:02:00,
2013-07-01 17:08:00,80.7,74.0,29.96,North,0,0.0,5.0,80,-99.99,,,-99.99,PWS SA v1.10,2013-07-01 21:08:00,
2013-07-01 17:14:00,80.3,73.9,29.97,WSW,257,1.7,5.0,80,-99.99,,,-99.99,PWS SA v1.10,2013-07-01 21:14:00,
2013-07-01 17:20:00,80.2,74.1,29.97,SSE,159,1.7,1.7,81,-99.99,,,-99.99,PWS SA v1.10,2013-07-01 21:20:00,
2013-07-01 17:26:00,79.4,74.2,29.96,North,0,0.0,5.0,84,-99.99,,,-99.99,PWS SA v1.10,2013-07-01 21:26:00,
2013-07-01 17:32:00,79.0,74.4,29.97,North,0,0.0,5.0,85,-99.99,,,-99.99,PWS SA v1.10,2013-07-01 21:32:00,
2013-07-01 17:38:00,78.6,74.6,29.97,North,0,0.0,5.0,87,-99.99,,,-99.99,PWS SA v1.10,2013-07-01 21:38:00,
2013-07-01 17:44:00,78.5,75.0,29.97,North,0,0.0,3.0,88,-99.99,,,-99.99,PWS SA v1.10,2013-07-01 21:44:00,
2013-07-01 17:50:00,78.5,75.0,29.97,ENE,64,5.1,5.1,88,-99.99,,,-99.99,PWS SA v1.10,2013-07-01 21:50:00,
2013-07-01 17:56:00,78.4,75.2,29.97,North,0,0.0,5.0,89,-99.99,,,-99.99,PWS SA v1.10,2013-07-01 21:56:00,
2013-07-01 18:02:00,78.1,74.9,29.97,North,0,0.0,5.0,89,-99.99,,,-99.99,PWS SA v1.10,2013-07-01 22:02:00,
2013-07-01 18:08:00,77.9,74.7,29.97,North,0,0.0,3.0,89,-99.99,,,-99.99,PWS SA v1.10,2013-07-01 22:08:00,
2013-07-01 18:14:00,77.7,74.8,29.97,North,0,0.0,3.0,90,-99.99,,,-99.99,PWS SA v1.10,2013-07-01 22:14:00,
2013-07-01 18:20:00,77.7,75.1,29.97,North,0,0.0,3.0,91,-99.99,,,-99.99,PWS SA v1.10,2013-07-01 22:20:00,
2013-07-01 18:26:00,77.8,75.3,29.97,North,0,0.0,3.0,91,-99.99,,,-99.99,PWS SA v1.10,2013-07-01 22:26:00,
2013-07-01 18:32:00,77.5,75.0,29.97,ESE,117,1.7,1.7,92,-99.99,,,-99.99,PWS SA v1.10,2013-07-01 22:32:00,
2013-07-01 18:38:00,77.5,75.3,29.97,North,0,0.0,3.0,92,-99.99,,,-99.99,PWS SA v1.10,2013-07-01 22:38:00,
2013-07-01 18:44:00,77.3,74.7,29.97,North,0,0.0,3.0,91,-99.99,,,-99.99,PWS SA v1.10,2013-07-01 22:44:00,
2013-07-01 18:50:00,77.3,74.8,29.97,North,0,0.0,1.0,91,-99.99,,,-99.99,PWS SA v1.10,2013-07-01 22:50:00,
2013-07-01 18:56:00,77.3,74.7,29.98,North,0,0.0,1.0,91,-99.99,,,-99.99,PWS SA v1.10,2013-07-01 22:56:00,
2013-07-01 19:02:00,77.2,74.5,29.98,North,0,0.0,1.0,91,-99.99,,,-99.99,PWS SA v1.10,2013-07-01 23:02:00,
2013-07-01 19:08:00,77.0,74.3,29.98,South,172,3.4,3.4,91,-99.99,,,-99.99,PWS SA v1.10,2013-07-01 23:08:00,
2013-07-01 19:14:00,76.9,74.4,29.98,North,0,0.0,3.0,91,-99.99,,,-99.99,PWS SA v1.10,2013-07-01 23:14:00,
2013-07-01 19:20:00,76.7,74.3,29.99,North,0,0.0,3.0,91,-99.99,,,-99.99,PWS SA v1.10,2013-07-01 23:20:00,
2013-07-01 19:26:00,76.6,74.4,29.98,North,0,0.0,3.0,92,-99.99,,,-99.99,PWS SA v1.10,2013-07-01 23:26:00,
2013-07-01 19:32:00,76.5,74.4,29.98,North,0,0.0,3.0,92,-99.99,,,-99.99,PWS SA v1.10,2013-07-01 23:32:00,
2013-07-01 19:38:00,76.4,74.2,29.98,North,0,0.0,3.0,92,-99.99,,,-99.99,PWS SA v1.10,2013-07-01 23:38:00,
2013-07-01 19:44:00,76.3,74.2,29.99,SE,138,1.7,1.7,93,-99.99,,,-99.99,PWS SA v1.10,2013-07-01 23:44:00,
2013-07-01 19:50:00,76.1,74.2,29.99,North,0,0.0,1.0,93,-99.99,,,-99.99,PWS SA v1.10,2013-07-01 23:50:00,
2013-07-01 19:56:00,75.9,74.3,29.99,SSE,155,1.7,5.0,94,-99.99,,,-99.99,PWS SA v1.10,2013-07-01 23:56:00,
2013-07-01 20:02:00,75.9,73.8,30.00,SSE,147,1.7,5.0,93,-99.99,,,-99.99,PWS SA v1.10,2013-07-02 00:02:00,
2013-07-01 20:08:00,75.7,73.7,29.99,North,0,0.0,5.0,93,-99.99,,,-99.99,PWS SA v1.10,2013-07-02 00:08:00,
2013-07-01 20:14:00,75.4,73.6,30.00,North,0,0.0,5.0,94,-99.99,,,-99.99,PWS SA v1.10,2013-07-02 00:14:00,
2013-07-01 20:20:00,75.2,73.6,30.00,North,0,0.0,5.0,94,-99.99,,,-99.99,PWS SA v1.10,2013-07-02 00:20:00,
2013-07-01 20:26:00,75.3,73.8,30.00,North,0,0.0,0.0,94,-99.99,,,-99.99,PWS SA v1.10,2013-07-02 00:26:00,
2013-07-01 20:32:00,75.2,73.4,30.00,SE,141,1.7,3.0,94,-99.99,,,-99.99,PWS SA v1.10,2013-07-02 00:32:00,
2013-07-01 20:38:00,75.0,73.4,30.00,North,0,0.0,3.0,94,-99.99,,,-99.99,PWS SA v1.10,2013-07-02 00:38:00,
2013-07-01 20:44:00,74.9,73.3,30.00,North,0,0.0,1.0,94,-99.99,,,-99.99,PWS SA v1.10,2013-07-02 00:44:00,
2013-07-01 20:50:00,74.9,73.5,30.01,North,0,0.0,0.0,94,-99.99,,,-99.99,PWS SA v1.10,2013-07-02 00:50:00,
2013-07-01 20:56:00,74.8,73.1,30.01,North,0,0.0,1.0,94,-99.99,,,-99.99,PWS SA v1.10,2013-07-02 00:56:00,
2013-07-01 21:02:00,74.7,73.3,30.01,North,0,0.0,1.0,94,-99.99,,,-99.99,PWS SA v1.10,2013-07-02 01:02:00,
2013-07-01 21:08:00,74.7,73.4,30.01,North,0,0.0,3.0,95,-99.99,,,-99.99,PWS SA v1.10,2013-07-02 01:08:00,
2013-07-01 21:14:00,74.6,73.2,30.01,SE,141,1.7,6.0,95,-99.99,,,-99.99,PWS SA v1.10,2013-07-02 01:14:00,
2013-07-01 21:20:00,74.6,73.2,30.01,SE,141,1.7,6.0,95,-99.99,,,-99.99,PWS SA v1.10,2013-07-02 01:20:00,
2013-07-01 21:26:00,74.5,72.9,30.01,North,0,0.0,6.0,95,-99.99,,,-99.99,PWS SA v1.10,2013-07-02 01:26:00,
2013-07-01 21:32:00,74.5,73.2,30.02,North,0,0.0,0.0,94,-99.99,,,-99.99,PWS SA v1.10,2013-07-02 01:32:00,
2013-07-01 21:38:00,74.4,72.7,30.03,North,0,0.0,0.0,94,-99.99,,,-99.99,PWS SA v1.10,2013-07-02 01:38:00,
2013-07-01 21:44:00,74.5,72.7,30.03,North,0,0.0,0.0,94,-99.99,,,-99.99,PWS SA v1.10,2013-07-02 01:44:00,
2013-07-01 21:50:00,74.4,72.5,30.03,SSE,161,5.1,5.1,94,-99.99,,,-99.99,PWS SA v1.10,2013-07-02 01:50:00,
2013-07-01 21:56:00,74.4,73.0,30.03,North,0,0.0,5.0,94,-99.99,,,-99.99,PWS SA v1.10,2013-07-02 01:56:00,
2013-07-01 22:02:00,74.4,72.8,30.04,North,0,0.0,6.0,94,-99.99,,,-99.99,PWS SA v1.10,2013-07-02 02:02:00,
2013-07-01 22:08:00,74.2,72.6,30.03,North,0,0.0,6.0,94,-99.99,,,-99.99,PWS SA v1.10,2013-07-02 02:08:00,
2013-07-01 22:14:00,74.1,72.7,30.03,North,0,0.0,5.0,94,-99.99,,,-99.99,PWS SA v1.10,2013-07-02 02:14:00,
2013-07-01 22:20:00,74.2,72.4,30.03,North,0,0.0,5.0,94,-99.99,,,-99.99,PWS SA v1.10,2013-07-02 02:20:00,
2013-07-01 22:26:00,74.1,72.7,30.04,North,0,0.0,5.0,94,-99.99,,,-99.99,PWS SA v1.10,2013-07-02 02:26:00,
2013-07-01 22:32:00,74.1,72.5,30.03,North,0,0.0,3.0,94,-99.99,,,-99.99,PWS SA v1.10,2013-07-02 02:32:00,
2013-07-01 22:38:00,74.0,72.5,30.03,North,0,0.0,3.0,94,-99.99,,,-99.99,PWS SA v1.10,2013-07-02 02:38:00,
2013-07-01 22:44:00,73.9,72.4,30.03,North,0,0.0,3.0,95,-99.99,,,-99.99,PWS SA v1.10,2013-07-02 02:44:00,
2013-07-01 22:50:00,73.9,72.2,30.03,SSE,157,1.7,1.7,95,-99.99,,,-99.99,PWS SA v1.10,2013-07-02 02:50:00,
2013-07-01 22:56:00,74.0,72.6,30.03,North,0,0.0,5.0,95,-99.99,,,-99.99,PWS SA v1.10,2013-07-02 02:56:00,
2013-07-01 23:02:00,74.0,72.6,30.03,North,0,0.0,5.0,95,-99.99,,,-99.99,PWS SA v1.10,2013-07-02 03:02:00,
2013-07-01 23:08:00,73.9,72.6,30.03,North,0,0.0,5.0,95,-99.99,,,-99.99,PWS SA v1.10,2013-07-02 03:08:00,
2013-07-01 23:14:00,73.9,72.6,30.03,North,0,0.0,3.0,95,-99.99,,,-99.99,PWS SA v1.10,2013-07-02 03:14:00,
2013-07-01 23:20:00,73.7,72.5,30.03,North,0,0.0,0.0,95,-99.99,,,-99.99,PWS SA v1.10,2013-07-02 03:20:00,
2013-07-01 23:26:00,73.7,72.4,30.03,North,0,0.0,0.0,95,-99.99,,,-99.99,PWS SA v1.10,2013-07-02 03:26:00,
2013-07-01 23:32:00,73.7,72.6,30.03,North,0,0.0,3.0,95,-99.99,,,-99.99,PWS SA v1.10,2013-07-02 03:32:00,
2013-07-01 23:38:00,73.7,72.5,30.03,North,0,0.0,3.0,95,-99.99,,,-99.99,PWS SA v1.10,2013-07-02 03:38:00,
2013-07-01 23:44:00,73.6,72.4,30.03,North,0,0.0,3.0,95,-99.99,,,-99.99,PWS SA v1.10,2013-07-02 03:44:00,
2013-07-01 23:50:00,73.6,72.3,30.03,North,0,0.0,3.0,95,-99.99,,,-99.99,PWS SA v1.10,2013-07-02 03:50:00,
2013-07-01 23:56:00,73.5,72.1,30.03,North,0,0.0,3.0,95,-99.99,,,-99.99,PWS SA v1.10,2013-07-02 03:56:00,